Regional Weather Roundup
Issued by NWS

Home | Current Version | Previous Version | Graphics & Text | Print | Product List | Glossary On
Versions: 1 2 3 4 5 6 7 8 9 10 11 12 13 14 15 16 17 18 19 20 21 22 23 24 25 26 27 28 29 30 31 32 33 34 35 36 37 38 39 40 41 42 43 44 45 46 47 48 49 50
000
ASUS43 KOAX 061402
RWRNE

WEATHER ROUNDUP FOR NEBRASKA
NATIONAL WEATHER SERVICE OMAHA NE
800 AM CST FRI MAR 06 2015

NOTES: SATELLITE DATA IS BEING USED TO AUGMENT CLOUD COVER ABOVE
       12000 FEET.
       "FAIR" INDICATES FEW OR NO CLOUDS BELOW 12,000 FEET WITH NO
       SIGNIFICANT WEATHER AND/OR OBSTRUCTIONS TO VISIBILITY.

  * THESE STATIONS DO NOT REPORT WEATHER SUCH AS RAIN...SNOW OR FOG.

NEZ001>004-019>022-054>056-061500-
NEBRASKA PANHANDLE

CITY           SKY/WX    TMP DP  RH WIND       PRES   REMARKS
SCOTTSBLUFF    CLEAR     26  20  77 NW6       30.23R WCI  19
ALLIANCE       CLEAR     26  20  77 W10       30.18S WCI  16
CHADRON        PTCLDY    29  21  72 SW7       30.19S WCI  22
KIMBALL        CLEAR     33  18  54 W13       30.21S WCI  24
SIDNEY         CLEAR     29  19  66 W13       30.23R WCI  19
$$

NEZ057>060-069>072-079>082-061500-
SOUTHWEST NEBRASKA

CITY           SKY/WX    TMP DP  RH WIND       PRES   REMARKS
NORTH PLATTE   PTCLDY    22  17  81 NW5       30.22R WCI  16
IMPERIAL         N/A     28  17  63 W9        30.24R WCI  19
LEXINGTON      CLEAR     22  18  83 NW5       30.22R WCI  16
MCCOOK         CLEAR     25  18  74 W9        30.25S WCI  15
$$

NEZ005>010-023>029-035>040-094-061500-
NORTH CENTRAL NEBRASKA

CITY           SKY/WX    TMP DP  RH WIND       PRES   REMARKS
VALENTINE      CLEAR     22  18  85 SW8       30.14S WCI  12
AINSWORTH      CLEAR     28  20  71 W5        30.14S WCI  23
BROKEN BOW     CLEAR     31  16  54 CALM      30.18S
ORD            CLEAR     21  14  74 CALM      30.18S
$$

NEZ041-046>049-061>064-073>077-083>087-061500-
SOUTH CENTRAL NEBRASKA

CITY           SKY/WX    TMP DP  RH WIND       PRES   REMARKS
GRAND ISLAND   SUNNY     26  15  63 W9        30.21R WCI  17
AURORA         SUNNY     27  17  65 W8        30.20S WCI  19
HASTINGS       SUNNY     28  15  58 W9        30.21R WCI  19
HEBRON         SUNNY     28  15  58 W7        30.24S WCI  21
KEARNEY *      CLEAR     27  16  63 SW6       30.22R WCI  20
YORK           SUNNY     27  18  69 W10       30.20S WCI  17
$$

NEZ011>018-030>034-042>045-061500-
NORTHEAST NEBRASKA

CITY           SKY/WX    TMP DP  RH WIND       PRES   REMARKS
NORFOLK        SUNNY     28  17  63 NW3       30.16R
ALBION         SUNNY     21  14  73 CALM      30.18R
BLAIR          SUNNY     27  15  60 W7        30.16S WCI  19
COLUMBUS *     SUNNY     25   9  50 W7        30.20R WCI  17
FREMONT        SUNNY     25  15  68 W5        30.18R WCI  19
TEKAMAH        SUNNY     23  14  68 SE5       30.18S WCI  17
$$

NEZ050>053-065>068-078-088>093-061500-
SOUTHEAST NEBRASKA

CITY           SKY/WX    TMP DP  RH WIND       PRES   REMARKS
LINCOLN        SUNNY     26  15  63 SW7       30.24R WCI  18
OMAHA EPPLEY   MOSUNNY   23  17  78 SE6       30.20S WCI  16
BEATRICE       SUNNY     28  18  66 SW5       30.24S WCI  22
FALLS CITY     SUNNY     32  21  64 W6        30.25R WCI  26
NEBRASKA CITY  SUNNY     29  15  56 W15       30.21R WCI  18
$$

NEZ044-045-051>053-067-061500-
OMAHA AREA

CITY           SKY/WX    TMP DP  RH WIND       PRES   REMARKS
OMAHA EPPLEY   MOSUNNY   23  17  78 SE6       30.20S WCI  16
BLAIR          SUNNY     27  15  60 W7        30.16S WCI  19
FREMONT        SUNNY     25  15  68 W5        30.18R WCI  19
OFFUTT AFB     SUNNY     20  15  81 E2        30.19R
WAHOO          FAIR      27  15  59 SW5       30.19R WCI  22
$$


USA.gov is the U.S. government's official web portal to all federal, state and local government web resources and services.